EW5962 Weather Reports


time (UTC)temp
C
wind
direction
speed
KPH
gust
KPH
rain 1hr
cm
rain 24hr
cm
rain mn
cm
humidity
%
barometer
mb
20260901143502 27 15 0.0 0.0 0.00 0.00 0.00 77 1018.0
20260901143014 27 325 0.0 0.0 0.00 0.00 0.00 78 1017.9
20260901142603 27 300 0.0 0.0 0.00 0.00 0.00 78 1018.0
20260901142002 27 288 0.0 1.6 0.00 0.00 0.00 80 1018.0
20260901141508 27 20 0.0 1.6 0.00 0.00 0.00 81 1018.0
20260901141103 26 349 0.0 1.6 0.00 0.00 0.00 82 1018.0
20260901140503 26 330 0.0 0.0 0.00 0.00 0.00 83 1017.9
20260901140010 26 348 0.0 0.0 0.00 0.00 0.00 85 1017.9
20260901135604 25 301 0.0 0.0 0.00 0.00 0.00 86 1017.9
20260901135002 25 323 0.0 0.0 0.00 0.00 0.00 87 1017.8
20260901134509 25 341 0.0 0.0 0.00 0.00 0.00 89 1017.9
20260901134102 25 212 0.0 0.0 0.00 0.00 0.00 88 1017.8
20260901133503 24 338 0.0 0.0 0.00 0.00 0.00 90 1017.9
20260901133009 24 338 0.0 0.0 0.00 0.00 0.00 90 1017.9
20260901132602 24 356 0.0 1.6 0.00 0.00 0.00 92 1017.9
20260901132001 23 15 0.0 1.6 0.00 0.00 0.00 91 1017.9
20260901131514 23 339 0.0 3.2 0.00 0.00 0.00 93 1017.9
20260901131104 23 1 0.0 3.2 0.00 0.00 0.00 94 1017.9
20260901130503 23 339 0.0 0.0 0.00 0.00 0.00 95 1017.9
20260901130009 23 356 0.0 0.0 0.00 0.00 0.00 96 1017.8
20260901125602 23 259 0.0 0.0 0.00 0.00 0.00 96 1017.9
20260901125002 22 259 0.0 0.0 0.00 0.00 0.00 97 1017.9
20260901124509 22 259 0.0 0.0 0.00 0.00 0.00 97 1017.9
20260901124105 22 259 0.0 0.0 0.00 0.00 0.00 97 1017.9
20260901123502 22 259 0.0 0.0 0.00 0.00 0.00 97 1017.9
20260901123010 22 259 0.0 1.6 0.00 0.00 0.00 98 1017.9
20260901122603 21 259 0.0 1.6 0.00 0.00 0.00 98 1017.9
20260901122002 21 231 0.0 0.0 0.00 0.00 0.00 98 1017.9
20260901121509 21 231 0.0 0.0 0.00 0.00 0.00 97 1017.8
20260901121102 21 231 0.0 0.0 0.00 0.00 0.00 97 1017.8
20260901120502 21 231 0.0 0.0 0.00 0.00 0.00 97 1017.8
20260901120010 21 231 0.0 0.0 0.00 0.00 0.00 97 1017.8
20260901115602 20 231 0.0 0.0 0.00 0.00 0.00 97 1017.8
20260901115003 20 231 0.0 0.0 0.00 0.00 0.00 97 1017.6
20260901114510 20 231 0.0 0.0 0.00 0.00 0.00 97 1017.7
20260901114102 20 231 0.0 0.0 0.00 0.00 0.00 97 1017.6
20260901113502 20 231 0.0 0.0 0.00 0.00 0.00 97 1017.5
20260901113009 20 231 0.0 0.0 0.00 0.00 0.00 97 1017.4
20260901112601 20 231 0.0 0.0 0.00 0.00 0.00 97 1017.4
20260901112002 20 231 0.0 0.0 0.00 0.00 0.00 97 1017.3
20260901111508 20 231 0.0 0.0 0.00 0.00 0.00 97 1017.3
20260901111102 20 231 0.0 0.0 0.00 0.00 0.00 96 1017.3
20260901110502 20 231 0.0 0.0 0.00 0.00 0.00 96 1017.2
20260901110008 20 231 0.0 0.0 0.00 0.00 0.00 96 1017.1
20260901105602 20 231 0.0 0.0 0.00 0.00 0.00 96 1017.1
20260901105003 20 231 0.0 0.0 0.00 0.00 0.00 96 1017.0
20260901104517 20 231 0.0 0.0 0.00 0.00 0.00 96 1016.9
20260901104103 20 231 0.0 0.0 0.00 0.00 0.00 96 1016.9
20260901103503 20 231 0.0 0.0 0.00 0.00 0.00 96 1016.9
20260901103008 20 231 0.0 0.0 0.00 0.00 0.00 96 1016.9
20260901102603 20 231 0.0 0.0 0.00 0.00 0.00 96 1016.9
20260901102003 20 231 0.0 0.0 0.00 0.00 0.00 96 1016.8
20260901101509 20 231 0.0 0.0 0.00 0.00 0.00 96 1016.7
20260901101105 20 231 0.0 0.0 0.00 0.00 0.00 96 1016.8
20260901100504 20 231 0.0 0.0 0.00 0.00 0.00 96 1016.9
20260901100010 20 231 0.0 0.0 0.00 0.00 0.00 96 1016.9
20260901095603 20 231 0.0 0.0 0.00 0.00 0.00 96 1016.8
20260901095004 20 231 0.0 0.0 0.00 0.00 0.00 96 1016.7
20260901094509 20 231 0.0 0.0 0.00 0.00 0.00 96 1016.7
20260901094105 20 231 0.0 0.0 0.00 0.00 0.00 96 1016.8
20260901093504 20 231 0.0 0.0 0.00 0.00 0.00 96 1016.8
20260901093009 20 231 0.0 0.0 0.00 0.00 0.00 96 1016.8
20260901092603 20 231 0.0 0.0 0.00 0.00 0.00 96 1016.8
20260901092003 20 231 0.0 0.0 0.00 0.00 0.00 96 1016.7
20260901091509 20 231 0.0 0.0 0.00 0.00 0.00 96 1016.8
20260901091102 20 231 0.0 0.0 0.00 0.00 0.00 96 1016.8
20260901090503 20 231 0.0 0.0 0.00 0.00 0.00 96 1016.8
20260901090010 20 231 0.0 0.0 0.00 0.00 0.00 96 1016.8
20260901085603 20 231 0.0 0.0 0.00 0.00 0.00 96 1016.7
20260901085004 20 231 0.0 0.0 0.00 0.00 0.00 96 1016.8
20260901084509 20 231 0.0 0.0 0.00 0.00 0.00 96 1017.0
20260901084104 20 231 0.0 0.0 0.00 0.00 0.00 96 1017.0
20260901083504 20 231 0.0 0.0 0.00 0.00 0.00 96 1016.9
20260901083026 20 231 0.0 0.0 0.00 0.00 0.00 96 1016.8
20260901082604 20 231 0.0 0.0 0.00 0.00 0.00 96 1016.9
20260901082003 20 231 0.0 0.0 0.00 0.00 0.00 96 1016.8
20260901081512 20 231 0.0 0.0 0.00 0.00 0.00 96 1016.9
20260901081105 21 231 0.0 0.0 0.00 0.00 0.00 95 1017.0
20260901080503 21 231 0.0 0.0 0.00 0.00 0.00 95 1016.9
20260901080010 21 231 0.0 0.0 0.00 0.00 0.00 96 1016.9
20260901075604 21 231 0.0 0.0 0.00 0.00 0.00 96 1016.9
20260901075004 21 231 0.0 0.0 0.00 0.00 0.00 96 1016.9
20260901074517 21 231 0.0 0.0 0.00 0.00 0.00 96 1017.0
20260901074103 21 231 0.0 0.0 0.00 0.00 0.00 96 1017.0
20260901073503 21 231 0.0 0.0 0.00 0.00 0.00 95 1017.1
20260901073025 21 231 0.0 0.0 0.00 0.00 0.00 95 1017.1
20260901072606 21 231 0.0 0.0 0.00 0.00 0.00 95 1017.1
20260901072003 21 231 0.0 0.0 0.00 0.00 0.00 95 1017.1
20260901071510 21 231 0.0 0.0 0.00 0.00 0.00 96 1017.2
20260901071103 21 231 0.0 0.0 0.00 0.00 0.00 96 1017.2
20260901070503 21 231 0.0 0.0 0.00 0.00 0.00 96 1017.2
20260901070019 21 231 0.0 0.0 0.00 0.00 0.00 96 1017.2
20260901065604 21 231 0.0 0.0 0.00 0.00 0.00 96 1017.2
20260901065003 21 231 0.0 0.0 0.00 0.00 0.00 95 1017.2
20260901064513 21 231 0.0 0.0 0.00 0.00 0.00 95 1017.2
20260901064104 21 231 0.0 0.0 0.00 0.00 0.00 95 1017.3
20260901063503 21 231 0.0 0.0 0.00 0.00 0.00 95 1017.4
20260901063009 21 231 0.0 0.0 0.00 0.00 0.00 95 1017.3
20260901062605 21 231 0.0 0.0 0.00 0.00 0.00 95 1017.4
20260901062004 21 231 0.0 0.0 0.00 0.00 0.00 95 1017.4
20260901061509 21 231 0.0 0.0 0.00 0.00 0.00 95 1017.4
20260901061105 21 231 0.0 0.0 0.00 0.00 0.00 95 1017.4
20260901060503 21 231 0.0 0.0 0.00 0.00 0.00 95 1017.5
20260901060011 21 231 0.0 0.0 0.00 0.00 0.00 95 1017.4
20260901055605 21 231 0.0 0.0 0.00 0.00 0.00 95 1017.4
20260901055003 21 231 0.0 0.0 0.00 0.00 0.00 95 1017.5
20260901054510 21 231 0.0 0.0 0.00 0.00 0.00 95 1017.4
20260901054107 21 231 0.0 0.0 0.00 0.00 0.00 95 1017.5
20260901053503 21 231 0.0 0.0 0.00 0.00 0.00 95 1017.5
20260901053010 21 231 0.0 0.0 0.00 0.00 0.00 95 1017.5
20260901052606 21 231 0.0 0.0 0.00 0.00 0.00 95 1017.5
20260901052002 21 231 0.0 0.0 0.00 0.00 0.00 95 1017.6
20260901051511 21 231 0.0 0.0 0.00 0.00 0.00 95 1017.6
20260901051009 21 231 0.0 0.0 0.00 0.00 0.00 95 1017.6
20260901050605 21 231 0.0 0.0 0.00 0.00 0.00 95 1017.6
20260901050004 21 231 0.0 0.0 0.00 0.00 0.00 95 1017.5
20260901045509 21 231 0.0 0.0 0.00 0.00 0.00 95 1017.7
20260901045104 21 231 0.0 0.0 0.00 0.00 0.00 94 1017.7
20260901044505 22 231 0.0 0.0 0.00 0.00 0.00 94 1017.7
20260901044010 22 231 0.0 0.0 0.00 0.00 0.00 94 1017.7
20260901043604 22 231 0.0 0.0 0.00 0.00 0.00 94 1017.7
20260901043004 22 231 0.0 0.0 0.00 0.00 0.00 95 1017.6
20260901042509 22 231 0.0 0.0 0.00 0.00 0.00 94 1017.6
20260901042103 22 231 0.0 0.0 0.00 0.00 0.00 94 1017.6
20260901041503 22 231 0.0 0.0 0.00 0.00 0.00 94 1017.6
20260901041003 22 231 0.0 0.0 0.00 0.00 0.00 94 1017.5
20260901040503 22 231 0.0 0.0 0.00 0.00 0.00 94 1017.4
20260901040009 22 231 0.0 0.0 0.00 0.00 0.00 94 1017.5
20260901035604 22 231 0.0 0.0 0.00 0.00 0.00 94 1017.5
20260901035002 22 231 0.0 0.0 0.00 0.00 0.00 94 1017.4
20260901034516 22 231 0.0 0.0 0.00 0.00 0.00 94 1017.4
20260901034103 22 231 0.0 0.0 0.00 0.00 0.00 94 1017.4
20260901033503 22 231 0.0 0.0 0.00 0.00 0.00 94 1017.4
20260901033010 22 231 0.0 0.0 0.00 0.00 0.00 94 1017.4
20260901032603 22 231 0.0 0.0 0.00 0.00 0.00 94 1017.5
20260901032003 22 231 0.0 0.0 0.00 0.00 0.00 94 1017.5
20260901031515 22 231 0.0 0.0 0.00 0.00 0.00 94 1017.4
20260901031105 22 231 0.0 0.0 0.00 0.00 0.00 94 1017.4
20260901030503 22 231 0.0 0.0 0.00 0.00 0.00 94 1017.3
20260901030017 22 231 0.0 0.0 0.00 0.00 0.00 94 1017.5
20260901025603 22 231 0.0 0.0 0.00 0.00 0.00 94 1017.5
20260901025004 22 231 0.0 0.0 0.00 0.00 0.00 93 1017.5
20260901024521 22 231 0.0 0.0 0.00 0.00 0.00 93 1017.4
20260901024106 22 231 0.0 0.0 0.00 0.00 0.00 93 1017.4
20260901023503 22 231 0.0 0.0 0.00 0.00 0.00 93 1017.5
20260901023010 22 231 0.0 0.0 0.00 0.00 0.00 93 1017.4
20260901022603 22 231 0.0 0.0 0.00 0.00 0.00 93 1017.4
20260901022003 22 231 0.0 0.0 0.00 0.00 0.00 93 1017.4
20260901021509 23 231 0.0 0.0 0.00 0.00 0.00 93 1017.3
20260901021104 23 231 0.0 0.0 0.00 0.00 0.00 93 1017.4
20260901020502 23 231 0.0 0.0 0.00 0.00 0.00 93 1017.4
20260901020010 23 231 0.0 0.0 0.00 0.00 0.00 93 1017.4
20260901015605 23 231 0.0 0.0 0.00 0.00 0.00 92 1017.4
20260901015006 23 231 0.0 0.0 0.00 0.00 0.00 92 1017.4
20260901014509 23 231 0.0 0.0 0.00 0.00 0.00 92 1017.3
20260901014104 23 231 0.0 0.0 0.00 0.00 0.00 92 1017.2
20260901013503 23 231 0.0 0.0 0.00 0.00 0.00 91 1017.1
20260901013009 23 231 0.0 0.0 0.00 0.00 0.00 91 1017.1
20260901012604 23 231 0.0 0.0 0.00 0.00 0.00 91 1017.1
20260901012004 23 231 0.0 0.0 0.00 0.00 0.00 91 1016.9
20260901011510 23 231 0.0 0.0 0.00 0.00 0.00 91 1016.8
20260901011104 23 231 0.0 0.0 0.00 0.00 0.00 90 1016.8
20260901010503 23 231 0.0 0.0 0.00 0.00 0.00 90 1016.7
20260901010018 23 231 0.0 0.0 0.00 0.00 0.00 90 1016.6
20260901005603 24 231 0.0 0.0 0.00 0.00 0.00 90 1016.6
20260901005004 24 231 0.0 0.0 0.00 0.00 0.00 89 1016.5
20260901004509 24 231 0.0 0.0 0.00 0.00 0.00 89 1016.6
20260901004103 24 231 0.0 0.0 0.00 0.00 0.00 88 1016.6
20260901003503 25 231 0.0 0.0 0.00 0.00 0.00 88 1016.5
20260901003011 25 231 0.0 0.0 0.00 0.00 0.00 88 1016.4
20260901002606 25 231 0.0 0.0 0.00 0.00 0.00 87 1016.4
20260901002010 25 231 0.0 0.0 0.00 0.00 0.00 87 1016.4
20260901001608 25 231 0.0 0.0 0.00 0.00 0.00 86 1016.3
20260901001002 25 231 0.0 0.0 0.00 0.00 0.00 86 1016.2
20260901000513 25 231 0.0 0.0 0.00 0.00 0.00 85 1016.3
20260901000105 25 231 0.0 0.0 0.00 0.00 0.00 85 1016.3
20260831235504 25 231 0.0 0.0 0.00 0.00 0.00 84 1016.2
20260831235009 26 231 0.0 0.0 0.00 0.00 0.00 84 1016.2
20260831234608 26 231 0.0 0.0 0.00 0.00 0.00 83 1016.2
20260831234002 26 231 0.0 0.0 0.00 0.00 0.00 82 1016.1
20260831233509 26 231 0.0 0.0 0.00 0.00 0.00 82 1016.1
20260831233103 26 231 0.0 0.0 0.00 0.00 0.00 81 1016.1
20260831232505 26 231 0.0 0.0 0.00 0.00 0.00 80 1016.1
20260831232010 27 231 0.0 0.0 0.00 0.00 0.00 79 1016.1
20260831231605 27 231 0.0 0.0 0.00 0.00 0.00 79 1016.1
20260831231003 27 231 0.0 0.0 0.00 0.00 0.00 78 1016.2
20260831230509 27 231 0.0 0.0 0.00 0.00 0.00 78 1016.2
20260831230140 27 231 0.0 0.0 0.00 0.00 0.00 77 1016.3
20260831225502 27 231 0.0 0.0 0.00 0.00 0.00 77 1016.2
20260831225009 27 231 0.0 0.0 0.00 0.00 0.00 76 1016.2
20260831224616 27 231 0.0 0.0 0.00 0.00 0.00 76 1016.3
20260831224003 27 231 0.0 0.0 0.00 0.00 0.00 76 1016.4
20260831223509 28 231 0.0 0.0 0.00 0.00 0.00 75 1016.4
20260831223103 28 231 0.0 0.0 0.00 0.00 0.00 73 1016.4
20260831222507 28 231 0.0 0.0 0.00 0.00 0.00 74 1016.5
20260831222010 28 231 0.0 0.0 0.00 0.00 0.00 73 1016.5
20260831221629 28 231 0.0 0.0 0.00 0.00 0.00 73 1016.5
20260831221004 28 231 0.0 1.6 0.00 0.00 0.00 72 1016.5
20260831220509 28 231 0.0 3.2 0.00 0.00 0.00 71 1016.7
20260831215503 28 200 0.0 0.0 0.00 0.00 0.00 74 1016.6
20260831215010 28 200 0.0 1.6 0.00 0.00 0.00 75 1016.7
20260831214608 28 200 0.0 1.6 0.00 0.00 0.00 75 1016.7
20260831214002 28 200 0.0 1.6 0.00 0.00 0.00 73 1016.7
20260831213509 28 200 0.0 1.6 0.00 0.00 0.00 74 1016.8
20260831213103 28 200 0.0 0.0 0.00 0.00 0.00 74 1016.8
20260831212504 28 232 0.0 1.6 0.00 0.00 0.00 72 1016.7
20260831212009 28 234 0.0 1.6 0.00 0.00 0.00 72 1016.8
20260831211615 28 278 0.0 1.6 0.00 0.00 0.00 72 1016.9
20260831211004 28 123 0.0 0.0 0.00 0.00 0.00 71 1017.1
20260831210508 28 104 0.0 1.6 0.00 0.00 0.00 69 1017.0
20260831210103 29 65 0.0 1.6 0.00 0.00 0.00 69 1016.9
20260831205503 29 32 0.0 1.6 0.00 0.00 0.00 67 1016.9
20260831205009 30 161 0.0 1.6 0.00 0.00 0.00 67 1016.9
20260831204603 30 11 0.0 1.6 0.00 0.00 0.00 66 1017.1
20260831204005 30 57 0.0 6.4 0.00 0.00 0.00 65 1017.3
20260831203510 31 89 0.0 6.4 0.00 0.00 0.00 64 1017.2
20260831203104 31 39 0.0 6.4 0.00 0.00 0.00 64 1017.2
20260831202503 31 23 0.0 0.0 0.00 0.00 0.00 65 1017.0
20260831202011 31 3 0.0 4.8 0.00 0.00 0.00 64 1017.0
20260831201605 31 58 0.0 4.8 0.00 0.00 0.00 64 1016.9
20260831201002 32 321 0.0 3.2 0.00 0.00 0.00 63 1016.7
20260831200508 32 314 0.0 1.6 0.00 0.00 0.00 61 1016.7
20260831195502 32 148 0.0 8.0 0.00 0.00 0.00 60 1016.8
20260831195009 32 189 0.0 8.0 0.00 0.00 0.00 60 1016.8
20260831194702 33 193 0.0 1.6 0.00 0.00 0.00 59 1016.8
20260831194003 33 175 0.0 1.6 0.00 0.00 0.00 57 1016.8
20260831193509 33 175 0.0 8.0 0.00 0.00 0.00 56 1016.9
20260831193103 33 162 1.6 8.0 0.00 0.00 0.00 51 1016.9
20260831192502 33 167 0.0 1.6 0.00 0.00 0.00 53 1016.8
20260831192008 33 217 0.0 3.2 0.00 0.00 0.00 54 1016.8
20260831191603 33 217 0.0 3.2 0.00 0.00 0.00 53 1017.0
20260831191003 34 212 0.0 1.6 0.00 0.00 0.00 51 1017.0
20260831190510 34 205 0.0 4.8 0.00 0.00 0.00 55 1017.1
20260831190110 34 347 0.0 4.8 0.00 0.00 0.00 52 1017.1
20260831185503 34 252 0.0 3.2 0.00 0.00 0.00 55 1017.2
20260831185013 33 252 0.0 4.8 0.00 0.00 0.00 51 1017.2
20260831184617 33 252 0.0 4.8 0.00 0.00 0.00 49 1017.3
20260831184002 34 203 0.0 1.6 0.00 0.00 0.00 52 1017.4
20260831183510 34 349 0.0 9.7 0.00 0.00 0.00 54 1017.5
20260831183103 34 10 0.0 9.7 0.00 0.00 0.00 55 1017.5
20260831182503 34 2 3.2 8.0 0.00 0.00 0.00 54 1017.7
20260831182009 33 23 0.0 6.4 0.00 0.00 0.00 54 1017.7
20260831181603 34 4 0.0 6.4 0.00 0.00 0.00 55 1017.7
20260831181002 33 59 0.0 8.0 0.00 0.00 0.00 55 1017.7
20260831180510 33 115 0.0 8.0 0.00 0.00 0.00 57 1017.9
20260831175502 33 189 1.6 9.7 0.00 0.00 0.00 56 1018.0
20260831175009 33 217 0.0 9.7 0.00 0.00 0.00 59 1018.1
20260831174609 33 348 3.2 9.7 0.00 0.00 0.00 59 1018.1
20260831174110 33 326 0.0 1.6 0.00 0.00 0.00 59 1018.1
20260831173509 32 278 0.0 1.6 0.00 0.00 0.00 62 1018.1
20260831173103 32 336 0.0 3.2 0.00 0.00 0.00 61 1018.1
20260831172503 32 212 0.0 3.2 0.00 0.00 0.00 62 1018.2
20260831172012 32 359 0.0 1.6 0.00 0.00 0.00 60 1018.3
20260831171603 32 353 0.0 3.2 0.00 0.00 0.00 61 1018.3
20260831171002 32 344 0.0 3.2 0.00 0.00 0.00 63 1018.3
20260831170513 31 59 0.0 8.0 0.00 0.00 0.00 63 1018.3
20260831170132 31 90 0.0 8.0 0.00 0.00 0.00 63 1018.3
20260831165502 31 168 0.0 4.8 0.00 0.00 0.00 65 1018.4
20260831165010 31 36 0.0 4.8 0.00 0.00 0.00 64 1018.4
20260831164603 31 174 0.0 6.4 0.00 0.00 0.00 67 1018.5
20260831164003 31 351 0.0 9.7 0.00 0.00 0.00 64 1018.6
20260831163509 31 270 0.0 0.0 0.00 0.00 0.00 66 1018.7
20260831163103 31 170 0.0 1.6 0.00 0.00 0.00 66 1018.7
20260831162504 31 163 0.0 6.4 0.00 0.00 0.00 67 1018.7
20260831162010 31 188 0.0 6.4 0.00 0.00 0.00 66 1018.8
20260831161509 30 357 0.0 8.0 0.00 0.00 0.00 68 1018.8
20260831161103 30 309 0.0 8.0 0.00 0.00 0.00 70 1018.9
20260831160502 30 93 0.0 1.6 0.00 0.00 0.00 68 1018.9
20260831160023 30 82 0.0 3.2 0.00 0.00 0.00 68 1018.9
20260831155603 30 190 0.0 3.2 0.00 0.00 0.00 72 1018.9
20260831155002 30 174 0.0 4.8 0.00 0.00 0.00 73 1018.9
20260831154509 30 191 0.0 4.8 0.00 0.00 0.00 71 1018.9
20260831154102 29 182 0.0 4.8 0.00 0.00 0.00 71 1018.9
20260831153502 29 178 0.0 1.6 0.00 0.00 0.00 72 1019.0
20260831153010 28 6 0.0 3.2 0.00 0.00 0.00 75 1019.0
20260831152604 28 47 0.0 3.2 0.00 0.00 0.00 75 1019.0
20260831152006 28 147 0.0 1.6 0.00 0.00 0.00 76 1019.0
20260831151511 28 122 0.0 1.6 0.00 0.00 0.00 75 1019.1
20260831151103 28 3 0.0 1.6 0.00 0.00 0.00 78 1019.1
20260831150503 27 146 0.0 6.4 0.00 0.00 0.00 79 1019.2
20260831150010 27 21 0.0 6.4 0.00 0.00 0.00 80 1019.2
20260831145602 27 171 0.0 3.2 0.00 0.00 0.00 80 1019.2
20260831145003 26 159 0.0 1.6 0.00 0.00 0.00 81 1019.2
20260831144522 26 165 0.0 1.6 0.00 0.00 0.00 82 1019.3
20260831144106 26 136 0.0 1.6 0.00 0.00 0.00 83 1019.2